發表時間 文章標題 人氣 留言
2017-05-22 【人氣商品】【5入組】【U1】Apacer micro C10 32G記憶卡 小卡U1C10 R85_32G【下殺】 (0) (0)
2017-05-22 【人氣商品】【3TB】Seagate Surveillance HDD 7200rpm ST3000VX004-3Y-P【下殺】 (0) (0)
2017-05-22 【RHINO SHIELD犀牛盾】PLAYPROOF 4.7吋耐撞擊全包覆機身保護殼-蜜桃粉[PLAYPROOF-粉紅].【限時下殺】 (0) (0)
2017-05-21 上豪16吋立扇 FN-1621【熱門搶購】 (0) (0)
2017-05-21 達新牌摺疊式負離子吹風機 FD-2【燦坤快3】 (0) (0)
2017-05-21 SONY 藍光家庭劇院(公司貨)-BDV-E2100【情報】 (0) (0)
2017-05-19 Wiston W121 相機郵差包(小)-深灰 W121【燦坤快3】 (0) (0)
2017-05-19 ZOJIRUSHI 象印IH免洗米電子鍋10人份 NP-HBF18【情報】 (0) (0)
2017-05-19 WISEWAYS KUBE 藍牙揚聲器 APM-1303-016【熱門搶購】 (0) (0)
2017-05-18 PS4- 樂高:侏儸紀世界 (英文版) PAX0006952524【熱門搶購】 (0) (0)
2017-05-18 RECSUR 銳攝 RS-315 油壓式三腳架 RS-315 RS-315【限時下殺】 (0) (0)
2017-05-18 Homelike 黛絲3.5尺床組+獨立筒床墊-單人(胡桃木紋)【經驗分享】 (0) (0)
2017-05-17 H&D DELOIN德朗木作皮革餐椅-奶黃色【分享文】 (0) (0)
2017-05-17 KRIA可利亞 1.8L玻璃炫光快煮壼+濾水壺組 KR-1735+PI-03【限時下殺】 (0) (0)
2017-05-17 Diso 運動型藍芽耳機-白灰 A908707【燦坤快3】 (0) (0)
2017-05-16 dyson V型 乾手機(銀色) AB12(銀色)【燦坤快3】 (0) (0)
2017-05-16 【Win10】華碩B150平台【狙擊特務】i5四核GTX1050獨顯SSD電玩機.【限時下殺】 (0) (0)
2017-05-16 【Breo倍輕鬆】頭皮SPA按摩器 Scalp(粉紅色)[Scalp].【部落客票選】 (0) (0)
2017-05-15 【Buder 普德】廚下型 加熱生飲系統 BD-3004C[BD-3004C].【好康推薦】 (0) (0)
2017-05-15 【盈亮】瑜珈挺腰拉筋板 1入起 - 157936【熱門搶購】 (0) (0)
2017-05-15 『ZOJIRUSHI』☆象印 6人份 IH 電子鍋 NP-HBF10[NP-HBF10].【限時下殺】 (0) (0)
2017-05-14 Opure A4光觸媒DC節能空氣清淨機 A4【熱門搶購】 (0) (0)
2017-05-14 Lenovo IdeaPad 510-15IKB 80SV00ESTW 5SP3 特仕版 15.6"(i5-7200U-8G DDR4-128G SSD+1TB-940MX 4G-WIN10-FHD)贈外接式DVD燒錄機[IdeaPad 510-15IKB 80SV00ESTW].【好康推薦】 (0) (0)
2017-05-14 NISI 耐司 軟式方型漸層減光鏡 Soft GND4(0.6)100x150【限時下殺】 (0) (0)
2017-05-13 Panasonic 16公斤ECO NAVI變頻洗衣機 NA-V178DB-PN(玫瑰金)【好康推薦】 (0) (0)
2017-05-13 Panasonic 2.4GHz數位無線電話KX-TG3411 KX-TG3411【熱門搶購】 (0) (0)
2017-05-13 MITSUBISHI一對一變頻冷暖空調(禪系列) MSZ-MUZ-EF35NAW【燦坤快3】 (0) (0)
2017-05-12 Brother MFC-8910DW 高速雷射複合機 MFC-8910DW【熱門搶購】 (0) (0)
2017-05-12 『Mitsubishi』☆三菱 日本原裝 525L變頻五門電冰箱 MR-BX53X (粉鑽銀) [MR-BX53X-N].【好康推薦】 (0) (0)
2017-05-12 B&O PLAY藍牙揚聲器 BeoPlay A1(石墨黑)【燦坤快3】 (0) (0)
2017-05-11 WONDER雙層玻璃杯雙人咖啡機 WH-L03D【燦坤快3】 (0) (0)
2017-05-11 美國Klipsch 主聲道喇叭-櫻桃木 RP-260F Cherry【燦坤快3】 (0) (0)
2017-05-11 HERAN一對一變頻冷暖空調 HI-G63H HO-G63H【燦坤快3】 (0) (0)
2017-05-10 HP 951XL 黃色墨水匣 CN048AA【限時下殺】 (0) (0)
2017-05-10 IPAD MINI SMART CASE BLUE ME709FE-A【熱門搶購】 (0) (0)
2017-05-10 SONY 收音機 ICF-P26-BC【燦坤快3】 (0) (0)
2017-05-09 【iPhone 6s Plus】OtterBox Defender防摔殼-粉 77-52238【燦坤快3】 (0) (0)
2017-05-09 【Mirco USB】Insta 360°AIR 全景相機攝影機-金 IN10400213【好康推薦】 (0) (0)
2017-05-09 【32G】LENOVO IdeaTab 4G 通話平板 PHAB Plus ZA070013TW【燦坤快3】 (0) (0)
2017-05-08 Hario 1000ml不銹鋼手沖壺 VKB100HSV【熱門搶購】 (0) (0)
2017-05-08 Swallow WT-420 鋁合金四節式腳架 WT-420(公司貨)【燦坤快3】 (0) (0)
2017-05-08 【32G】廣穎Blaze B21 隨身碟 SP032GBUF3B21V1K【好康推薦】 (0) (0)
2017-05-07 DOCTOR AIR 紓壓椅-黑 HADARC001【熱門搶購】 (0) (0)
2017-05-07 Garmin Vivo Smart HR腕式心率智慧手環-紫 Vivo Smart HR【燦坤快3】 (0) (0)
2017-05-07 【10000mAh】ADATA PV150 行動電源-白 PV150【熱門搶購】 (0) (0)
2017-05-06 【iPhone 7】M.CRAFTSMAN 耐衝擊保護殼-透明 TU7(TPU-RP)CL【限時下殺】 (0) (0)
2017-05-06 台灣烏克麗麗專門店 - 150389【熱門搶購】 (0) (0)
2017-05-06 【DW】手錶-腕錶系列商品 1入起 - 158473【熱門搶購】 (0) (0)
2017-05-05 SONY 32型LED智慧型液晶電視 KDL-32W600D【燦坤快3】 (0) (0)
2017-05-05 T.C.STAR Hi-Fi藍牙揚聲器 TCS6000GD(金)【熱門搶購】 (0) (0)